QPF
0.00 0.00 0.00 0.01 0.00 0.00 0.01 0.01 0.02 0.02 0.02 0.02 0.01 0.01 0.01 0.01 0.01 0.01 0.01 0.01 0.01 0.01 0.02 0.02 0.02 0.01 0.01 0.01 0.01 0.01 0.01 0.01 0.02 0.02 0.02 0.02 0.02 0.02 0.03 0.03 0.03 0.03 0.02 0.02
0.00 0.00 0.01 0.01 0.00 0.00 0.00 0.00 0.01 0.01 0.01 0.01 0.01 0.01 0.01 0.01 0.01 0.01 0.01 0.01 0.01 0.01 0.01 0.02 0.02 0.02 0.02 0.01 0.01 0.01 0.01 0.01 0.01 0.02 0.02 0.03 0.03 0.03 0.03 0.04 0.03 0.03 0.03 0.03
0.01 0.00 0.01 0.01 0.00 0.00 0.00 0.00 0.01 0.01 0.01 0.01 0.01 0.01 0.01 0.01 0.01 0.01 0.01 0.01 0.01 0.01 0.01 0.02 0.02 0.02 0.02 0.02 0.02 0.02 0.02 0.01 0.01 0.01 0.02 0.02 0.03 0.04 0.04 0.05 0.05 0.05 0.04 0.04
0.02 0.01 0.01 0.01 0.00 0.00 0.00 0.01 0.01 0.01 0.01 0.01 0.01 0.01 0.01 0.01 0.01 0.01 0.01 0.01 0.01 0.01 0.01 0.01 0.02 0.02 0.01 0.01 0.01 0.01 0.02 0.02 0.01 0.01 0.01 0.02 0.02 0.03 0.04 0.05 0.05 0.05 0.04 0.04
0.02 0.02 0.01 0.00 0.00 0.00 0.00 0.01 0.01 0.00 0.00 0.01 0.01 0.01 0.01 0.01 0.01 0.01 0.01 0.01 0.01 0.01 0.01 0.01 0.01 0.01 0.01 0.01 0.01 0.01 0.01 0.02 0.01 0.01 0.01 0.02 0.02 0.02 0.03 0.03 0.04 0.04 0.04 0.04
0.03 0.02 0.01 0.01 0.00 0.00 0.01 0.01 0.00 0.00 0.00 0.00 0.01 0.01 0.01 0.01 0.01 0.01 0.01 0.01 0.01 0.01 0.01 0.01 0.01 0.01 0.01 0.01 0.01 0.01 0.01 0.01 0.02 0.01 0.01 0.02 0.02 0.02 0.02 0.03 0.03 0.03 0.03 0.02
0.02 0.02 0.01 0.00 0.00 0.00 0.01 0.01 0.01 0.01 0.01 0.01 0.01 0.01 0.01 0.01 0.01 0.01 0.01 0.01 0.01 0.01 0.01 0.01 0.01 0.01 0.01 0.01 0.01 0.01 0.01 0.01 0.02 0.02 0.02 0.02 0.02 0.02 0.02 0.02 0.02 0.02 0.02 0.02
0.01 0.02 0.01 0.00 0.00 0.00 0.01 0.01 0.01 0.01 0.01 0.01 0.01 0.01 0.01 0.01 0.01 0.01 0.01 0.01 0.01 0.01 0.01 0.01 0.01 0.01 0.01 0.01 0.01 0.01 0.01 0.02 0.02 0.02 0.02 0.02 0.02 0.02 0.02 0.02 0.02 0.02 0.02 0.02
0.01 0.01 0.00 0.00 0.00 0.00 0.01 0.01 0.01 0.01 0.01 0.01 0.01 0.01 0.01 0.01 0.01 0.01 0.01 0.01 0.01 0.01 0.01 0.01 0.01 0.01 0.01 0.01 0.01 0.01 0.01 0.02 0.02 0.02 0.02 0.02 0.02 0.02 0.02 0.02 0.02 0.02 0.02 0.02
0.00 0.00 0.00 0.01 0.00 0.00 0.00 0.01 0.01 0.01 0.01 0.01 0.01 0.01 0.00 0.00 0.00 0.01 0.01 0.01 0.01 0.01 0.01 0.01 0.01 0.01 0.01 0.01 0.01 0.02 0.02 0.02 0.02 0.02 0.02 0.01 0.01 0.02 0.02 0.02 0.02 0.02 0.01 0.01
0.00 0.00 0.00 0.01 0.00 0.00 0.00 0.01 0.01 0.01 0.00 0.01 0.01 0.01 0.00 0.00 0.00 0.00 0.00 0.01 0.01 0.01 0.01 0.01 0.01 0.01 0.02 0.02 0.02 0.02 0.02 0.02 0.02 0.02 0.02 0.02 0.01 0.02 0.02 0.02 0.02 0.02 0.02 0.02
0.00 0.01 0.01 0.00 0.00 0.00 0.00 0.00 0.00 0.00 0.00 0.00 0.01 0.01 0.01 0.00 0.00 0.01 0.01 0.01 0.01 0.01 0.01 0.01 0.01 0.01 0.01 0.01 0.01 0.01 0.01 0.01 0.01 0.01 0.01 0.01 0.01 0.02 0.02 0.02 0.02 0.02 0.02 0.02
0.00 0.00 0.01 0.00 0.00 0.00 0.00 0.00 0.00 0.00 0.00 0.00 0.00 0.01 0.01 0.01 0.01 0.01 0.01 0.01 0.01 0.01 0.01 0.01 0.01 0.01 0.01 0.01 0.01 0.01 0.01 0.01 0.01 0.01 0.01 0.01 0.01 0.01 0.02 0.02 0.02 0.02 0.02 0.02
0.00 0.00 0.00 0.00 0.00 0.00 0.00 0.00 0.00 0.00 0.00 0.00 0.00 0.00 0.01 0.01 0.01 0.01 0.01 0.01 0.01 0.01 0.01 0.01 0.01 0.01 0.01 0.01 0.01 0.01 0.01 0.01 0.02 0.02 0.02 0.02 0.02 0.02 0.02 0.02 0.02 0.02 0.02 0.02
0.00 0.00 0.00 0.00 0.00 0.00 0.00 0.00 0.00 0.00 0.00 0.00 0.00 0.01 0.01 0.01 0.01 0.01 0.01 0.01 0.01 0.01 0.01 0.01 0.01 0.01 0.01 0.01 0.01 0.01 0.01 0.01 0.02 0.02 0.02 0.02 0.02 0.02 0.02 0.02 0.02 0.02 0.02 0.02
0.00 0.00 0.00 0.00 0.00 0.00 0.01 0.01 0.01 0.00 0.00 0.00 0.00 0.01 0.01 0.01 0.01 0.01 0.01 0.01 0.01 0.01 0.01 0.01 0.01 0.01 0.01 0.01 0.01 0.01 0.02 0.02 0.02 0.02 0.02 0.02 0.02 0.02 0.03 0.03 0.03 0.02 0.02 0.02
0.00 0.00 0.00 0.00 0.00 0.00 0.00 0.00 0.01 0.01 0.01 0.01 0.01 0.01 0.01 0.01 0.01 0.01 0.01 0.01 0.01 0.01 0.01 0.01 0.01 0.01 0.01 0.01 0.02 0.02 0.02 0.03 0.03 0.03 0.03 0.03 0.03 0.03 0.03 0.03 0.03 0.03 0.02 0.02
0.00 0.00 0.00 0.00 0.00 0.00 0.00 0.00 0.00 0.00 0.01 0.01 0.01 0.01 0.01 0.01 0.01 0.01 0.01 0.01 0.01 0.01 0.01 0.01 0.01 0.01 0.01 0.01 0.02 0.02 0.03 0.03 0.03 0.03 0.03 0.03 0.03 0.03 0.03 0.03 0.02 0.02 0.02 0.02
0.00 0.00 0.00 0.01 0.00 0.00 0.00 0.00 0.00 0.00 0.01 0.01 0.01 0.01 0.01 0.01 0.01 0.01 0.01 0.01 0.01 0.01 0.01 0.01 0.01 0.01 0.02 0.02 0.03 0.03 0.03 0.03 0.03 0.03 0.03 0.03 0.03 0.03 0.03 0.03 0.03 0.02 0.02 0.02
0.00 0.00 0.01 0.01 0.00 0.00 0.00 0.00 0.00 0.00 0.01 0.01 0.01 0.01 0.01 0.01 0.01 0.01 0.01 0.01 0.01 0.01 0.01 0.02 0.02 0.02 0.02 0.02 0.02 0.02 0.02 0.02 0.03 0.03 0.03 0.03 0.03 0.03 0.03 0.02 0.02 0.02 0.02 0.02
0.00 0.00 0.00 0.00 0.00 0.00 0.00 0.00 0.00 0.01 0.01 0.01 0.01 0.01 0.01 0.01 0.01 0.01 0.01 0.01 0.02 0.02 0.02 0.02 0.02 0.02 0.02 0.02 0.02 0.02 0.02 0.02 0.02 0.02 0.02 0.02 0.02 0.02 0.02 0.02 0.02 0.02 0.02 0.02
0.00 0.00 0.00 0.00 0.00 0.01 0.01 0.01 0.01 0.01 0.01 0.01 0.01 0.01 0.01 0.01 0.01 0.01 0.01 0.02 0.02 0.02 0.02 0.02 0.02 0.02 0.02 0.02 0.02 0.02 0.02 0.02 0.02 0.02 0.02 0.02 0.02 0.02 0.02 0.02 0.02 0.01 0.01 0.01
0.00 0.00 0.00 0.00 0.00 0.01 0.01 0.01 0.01 0.01 0.01 0.01 0.01 0.01 0.01 0.01 0.01 0.01 0.02 0.02 0.02 0.02 0.02 0.01 0.02 0.02 0.02 0.02 0.02 0.02 0.02 0.02 0.02 0.02 0.02 0.02 0.02 0.02 0.02 0.02 0.02 0.02 0.01 0.01
0.00 0.00 0.00 0.00 0.01 0.01 0.01 0.01 0.01 0.01 0.01 0.01 0.01 0.01 0.01 0.01 0.01 0.01 0.01 0.02 0.02 0.02 0.01 0.01 0.02 0.02 0.02 0.02 0.01 0.02 0.02 0.02 0.02 0.02 0.02 0.02 0.02 0.02 0.02 0.02 0.01 0.01 0.01 0.01
0.01 0.01 0.01 0.01 0.01 0.01 0.01 0.01 0.01 0.01 0.01 0.01 0.01 0.01 0.01 0.01 0.01 0.01 0.01 0.01 0.01 0.01 0.01 0.01 0.01 0.01 0.01 0.01 0.01 0.01 0.01 0.02 0.02 0.02 0.02 0.02 0.01 0.01 0.01 0.01 0.01 0.01 0.01 0.01
0.01 0.01 0.01 0.01 0.01 0.01 0.01 0.01 0.01 0.01 0.01 0.01 0.01 0.01 0.01 0.01 0.01 0.01 0.01 0.01 0.01 0.01 0.01 0.01 0.01 0.01 0.01 0.01 0.01 0.01 0.01 0.01 0.01 0.01 0.01 0.01 0.01 0.01 0.01 0.01 0.01 0.01 0.01 0.01
0.01 0.01 0.01 0.01 0.01 0.01 0.01 0.01 0.01 0.01 0.01 0.01 0.01 0.01 0.01 0.01 0.01 0.01 0.01 0.01 0.01 0.01 0.01 0.01 0.01 0.01 0.01 0.01 0.01 0.01 0.01 0.01 0.01 0.01 0.01 0.01 0.01 0.01 0.01 0.01 0.01 0.01 0.01 0.01
MSLP
1023.62 1023.49 1023.48 1023.61 1023.90 1024.32 1024.84 1025.43 1026.02 1026.59 1027.09 1027.52 1027.87 1028.15 1028.39 1028.62 1028.85 1029.11 1029.40 1029.73 1030.09 1030.45 1030.80 1031.09 1031.32 1031.46 1031.49 1031.42 1031.25 1031.00 1030.69 1030.35 1030.01 1029.67 1029.35 1029.08 1028.83 1028.61 1028.41 1028.22 1028.03 1027.83 1027.64 1027.45
1024.68 1024.67 1024.78 1025.05 1025.45 1025.97 1026.56 1027.17 1027.75 1028.25 1028.63 1028.90 1029.06 1029.13 1029.16 1029.19 1029.25 1029.38 1029.59 1029.89 1030.24 1030.63 1031.02 1031.37 1031.64 1031.81 1031.86 1031.79 1031.60 1031.33 1031.00 1030.64 1030.28 1029.94 1029.63 1029.36 1029.12 1028.91 1028.71 1028.51 1028.31 1028.11 1027.90 1027.70
1025.84 1025.95 1026.18 1026.55 1027.05 1027.65 1028.28 1028.89 1029.43 1029.85 1030.11 1030.23 1030.20 1030.07 1029.90 1029.74 1029.64 1029.64 1029.75 1029.98 1030.31 1030.71 1031.12 1031.49 1031.80 1032.00 1032.07 1032.01 1031.83 1031.57 1031.24 1030.89 1030.54 1030.21 1029.92 1029.67 1029.45 1029.26 1029.07 1028.88 1028.68 1028.48 1028.26 1028.06
1027.08 1027.27 1027.57 1028.01 1028.56 1029.17 1029.80 1030.39 1030.86 1031.19 1031.34 1031.31 1031.13 1030.83 1030.49 1030.17 1029.92 1029.79 1029.81 1029.97 1030.26 1030.64 1031.04 1031.44 1031.77 1031.99 1032.09 1032.07 1031.93 1031.70 1031.41 1031.10 1030.79 1030.50 1030.26 1030.05 1029.86 1029.70 1029.53 1029.36 1029.16 1028.96 1028.74 1028.53
1028.33 1028.55 1028.87 1029.30 1029.83 1030.41 1030.99 1031.50 1031.90 1032.13 1032.18 1032.03 1031.73 1031.31 1030.85 1030.41 1030.05 1029.82 1029.74 1029.84 1030.07 1030.41 1030.81 1031.20 1031.55 1031.80 1031.95 1031.97 1031.89 1031.73 1031.51 1031.27 1031.03 1030.81 1030.63 1030.47 1030.33 1030.20 1030.06 1029.90 1029.72 1029.52 1029.31 1029.09
1029.52 1029.72 1029.99 1030.36 1030.81 1031.29 1031.77 1032.19 1032.49 1032.62 1032.58 1032.36 1031.98 1031.49 1030.95 1030.44 1030.01 1029.71 1029.57 1029.60 1029.78 1030.08 1030.45 1030.83 1031.18 1031.47 1031.66 1031.75 1031.75 1031.67 1031.54 1031.39 1031.24 1031.11 1030.99 1030.89 1030.80 1030.71 1030.60 1030.46 1030.29 1030.10 1029.89 1029.67
1030.58 1030.71 1030.89 1031.15 1031.47 1031.83 1032.18 1032.47 1032.67 1032.72 1032.61 1032.35 1031.93 1031.42 1030.86 1030.33 1029.87 1029.53 1029.34 1029.32 1029.45 1029.70 1030.03 1030.39 1030.74 1031.04 1031.28 1031.43 1031.51 1031.52 1031.49 1031.44 1031.38 1031.33 1031.28 1031.24 1031.20 1031.14 1031.05 1030.94 1030.79 1030.61 1030.41 1030.21
1031.44 1031.48 1031.56 1031.68 1031.86 1032.08 1032.29 1032.47 1032.57 1032.56 1032.41 1032.12 1031.71 1031.21 1030.68 1030.15 1029.69 1029.34 1029.13 1029.07 1029.14 1029.34 1029.62 1029.95 1030.28 1030.59 1030.85 1031.05 1031.20 1031.29 1031.35 1031.38 1031.40 1031.42 1031.44 1031.44 1031.44 1031.41 1031.35 1031.26 1031.13 1030.97 1030.80 1030.62
1032.05 1032.01 1031.99 1032.00 1032.06 1032.15 1032.25 1032.33 1032.35 1032.29 1032.13 1031.85 1031.46 1031.00 1030.51 1030.02 1029.58 1029.23 1029.00 1028.89 1028.92 1029.06 1029.28 1029.56 1029.86 1030.15 1030.42 1030.65 1030.84 1030.99 1031.11 1031.21 1031.29 1031.36 1031.42 1031.46 1031.48 1031.47 1031.43 1031.36 1031.26 1031.14 1031.01 1030.88
1032.38 1032.30 1032.21 1032.16 1032.13 1032.14 1032.16 1032.17 1032.15 1032.07 1031.90 1031.64 1031.29 1030.88 1030.43 1029.98 1029.56 1029.22 1028.97 1028.83 1028.80 1028.87 1029.03 1029.25 1029.50 1029.76 1030.02 1030.25 1030.46 1030.65 1030.80 1030.94 1031.05 1031.15 1031.23 1031.29 1031.32 1031.33 1031.30 1031.26 1031.19 1031.11 1031.02 1030.94
1032.44 1032.36 1032.28 1032.20 1032.15 1032.13 1032.12 1032.11 1032.06 1031.97 1031.81 1031.57 1031.25 1030.88 1030.47 1030.05 1029.65 1029.30 1029.03 1028.85 1028.77 1028.78 1028.87 1029.02 1029.21 1029.43 1029.66 1029.88 1030.09 1030.28 1030.45 1030.60 1030.73 1030.84 1030.92 1030.98 1031.01 1031.02 1031.01 1030.98 1030.94 1030.89 1030.86 1030.84
1032.28 1032.25 1032.21 1032.19 1032.17 1032.16 1032.16 1032.15 1032.11 1032.01 1031.86 1031.63 1031.34 1030.98 1030.59 1030.18 1029.79 1029.43 1029.14 1028.92 1028.79 1028.73 1028.76 1028.85 1028.99 1029.17 1029.36 1029.56 1029.76 1029.95 1030.11 1030.26 1030.39 1030.49 1030.57 1030.61 1030.64 1030.64 1030.63 1030.60 1030.58 1030.56 1030.56 1030.58
1031.99 1032.05 1032.10 1032.15 1032.20 1032.25 1032.28 1032.29 1032.25 1032.16 1032.00 1031.77 1031.48 1031.12 1030.73 1030.32 1029.92 1029.54 1029.23 1028.97 1028.80 1028.71 1028.69 1028.73 1028.83 1028.97 1029.13 1029.31 1029.49 1029.67 1029.83 1029.97 1030.09 1030.17 1030.24 1030.27 1030.28 1030.27 1030.24 1030.21 1030.18 1030.17 1030.19 1030.23
1031.71 1031.86 1032.01 1032.15 1032.28 1032.38 1032.45 1032.48 1032.45 1032.35 1032.17 1031.93 1031.61 1031.23 1030.82 1030.40 1029.99 1029.60 1029.26 1028.99 1028.80 1028.68 1028.63 1028.64 1028.71 1028.83 1028.97 1029.13 1029.30 1029.47 1029.62 1029.75 1029.86 1029.93 1029.98 1030.00 1029.99 1029.95 1029.90 1029.85 1029.81 1029.78 1029.78 1029.82
1031.57 1031.80 1032.02 1032.23 1032.41 1032.56 1032.65 1032.69 1032.65 1032.53 1032.32 1032.04 1031.69 1031.29 1030.86 1030.42 1029.99 1029.60 1029.26 1028.98 1028.77 1028.65 1028.59 1028.59 1028.65 1028.75 1028.88 1029.03 1029.19 1029.34 1029.49 1029.61 1029.71 1029.77 1029.80 1029.80 1029.77 1029.71 1029.63 1029.55 1029.47 1029.41 1029.38 1029.38
1031.69 1031.95 1032.21 1032.45 1032.66 1032.81 1032.90 1032.92 1032.85 1032.69 1032.45 1032.13 1031.75 1031.32 1030.86 1030.41 1029.98 1029.58 1029.24 1028.97 1028.77 1028.65 1028.59 1028.59 1028.64 1028.73 1028.85 1028.99 1029.13 1029.27 1029.40 1029.51 1029.59 1029.65 1029.66 1029.64 1029.59 1029.50 1029.40 1029.28 1029.16 1029.05 1028.97 1028.93
1032.16 1032.41 1032.65 1032.87 1033.05 1033.17 1033.23 1033.20 1033.09 1032.89 1032.60 1032.24 1031.83 1031.37 1030.90 1030.45 1030.01 1029.63 1029.30 1029.04 1028.85 1028.73 1028.66 1028.66 1028.69 1028.77 1028.86 1028.97 1029.09 1029.20 1029.30 1029.39 1029.45 1029.48 1029.48 1029.44 1029.37 1029.26 1029.13 1028.98 1028.83 1028.68 1028.55 1028.46
1032.99 1033.17 1033.35 1033.50 1033.62 1033.68 1033.67 1033.59 1033.42 1033.17 1032.85 1032.45 1032.01 1031.54 1031.07 1030.61 1030.19 1029.81 1029.49 1029.23 1029.04 1028.91 1028.83 1028.80 1028.81 1028.84 1028.89 1028.95 1029.02 1029.08 1029.14 1029.18 1029.21 1029.21 1029.19 1029.13 1029.04 1028.91 1028.77 1028.60 1028.42 1028.25 1028.10 1027.97
1034.15 1034.23 1034.30 1034.35 1034.38 1034.35 1034.27 1034.13 1033.90 1033.61 1033.25 1032.83 1032.38 1031.90 1031.43 1030.97 1030.55 1030.17 1029.85 1029.59 1029.38 1029.22 1029.10 1029.02 1028.97 1028.93 1028.91 1028.89 1028.89 1028.88 1028.87 1028.85 1028.82 1028.78 1028.73 1028.65 1028.54 1028.41 1028.26 1028.09 1027.92 1027.74 1027.59 1027.46
1035.50 1035.46 1035.42 1035.37 1035.29 1035.18 1035.02 1034.81 1034.55 1034.22 1033.84 1033.41 1032.95 1032.47 1032.00 1031.54 1031.11 1030.72 1030.38 1030.08 1029.83 1029.62 1029.44 1029.28 1029.14 1029.02 1028.90 1028.79 1028.68 1028.58 1028.49 1028.39 1028.30 1028.21 1028.11 1028.00 1027.88 1027.75 1027.61 1027.46 1027.30 1027.16 1027.02 1026.92
1036.91 1036.76 1036.61 1036.45 1036.29 1036.10 1035.88 1035.62 1035.32 1034.97 1034.57 1034.14 1033.68 1033.20 1032.72 1032.25 1031.81 1031.39 1031.01 1030.66 1030.35 1030.06 1029.80 1029.55 1029.32 1029.09 1028.86 1028.65 1028.44 1028.24 1028.05 1027.87 1027.70 1027.55 1027.41 1027.27 1027.14 1027.01 1026.88 1026.75 1026.63 1026.53 1026.44 1026.38
1038.23 1037.99 1037.75 1037.51 1037.27 1037.03 1036.77 1036.47 1036.15 1035.79 1035.39 1034.95 1034.49 1034.00 1033.51 1033.02 1032.55 1032.09 1031.66 1031.25 1030.87 1030.50 1030.15 1029.81 1029.48 1029.15 1028.83 1028.51 1028.20 1027.91 1027.63 1027.37 1027.13 1026.92 1026.73 1026.55 1026.40 1026.27 1026.15 1026.05 1025.97 1025.90 1025.87 1025.86
1039.35 1039.05 1038.74 1038.45 1038.17 1037.88 1037.59 1037.28 1036.95 1036.58 1036.17 1035.73 1035.26 1034.77 1034.26 1033.75 1033.24 1032.74 1032.25 1031.78 1031.33 1030.89 1030.47 1030.05 1029.64 1029.23 1028.83 1028.44 1028.05 1027.68 1027.33 1027.00 1026.70 1026.43 1026.19 1025.98 1025.80 1025.65 1025.53 1025.44 1025.38 1025.35 1025.36 1025.40
1040.22 1039.87 1039.53 1039.21 1038.90 1038.59 1038.29 1037.96 1037.62 1037.24 1036.83 1036.39 1035.91 1035.40 1034.88 1034.34 1033.80 1033.26 1032.73 1032.21 1031.71 1031.22 1030.74 1030.27 1029.81 1029.36 1028.92 1028.48 1028.05 1027.63 1027.24 1026.86 1026.51 1026.19 1025.90 1025.64 1025.43 1025.25 1025.10 1025.00 1024.94 1024.92 1024.94 1025.00
1040.83 1040.46 1040.11 1039.77 1039.44 1039.12 1038.80 1038.46 1038.11 1037.72 1037.31 1036.85 1036.37 1035.85 1035.31 1034.75 1034.19 1033.63 1033.08 1032.53 1032.01 1031.49 1031.00 1030.51 1030.04 1029.58 1029.12 1028.67 1028.23 1027.80 1027.38 1026.97 1026.59 1026.23 1025.89 1025.58 1025.32 1025.09 1024.90 1024.75 1024.66 1024.61 1024.61 1024.66
1041.23 1040.85 1040.49 1040.14 1039.80 1039.46 1039.12 1038.77 1038.40 1038.00 1037.57 1037.11 1036.62 1036.10 1035.55 1035.00 1034.43 1033.87 1033.32 1032.78 1032.25 1031.75 1031.26 1030.79 1030.34 1029.89 1029.45 1029.02 1028.59 1028.17 1027.74 1027.33 1026.91 1026.52 1026.13 1025.77 1025.44 1025.14 1024.89 1024.67 1024.51 1024.41 1024.36 1024.36
1041.50 1041.12 1040.74 1040.38 1040.01 1039.65 1039.29 1038.91 1038.52 1038.10 1037.66 1037.20 1036.70 1036.19 1035.66 1035.12 1034.57 1034.03 1033.50 1032.99 1032.49 1032.02 1031.56 1031.12 1030.70 1030.29 1029.88 1029.48 1029.07 1028.66 1028.24 1027.82 1027.39 1026.95 1026.52 1026.10 1025.70 1025.32 1024.98 1024.68 1024.43 1024.24 1024.11 1024.04
Thickness
5407 5410 5410 5408 5406 5403 5400 5407 5410 5423 5425 5426 5418 5415 5413 5411 5409 5407 5404 5401 5398 5395 5393 5390 5389 5387 5385 5384 5383 5384 5384 5384 5384 5384 5384 5384 5384 5384 5385 5385 5385 5386 5386 5386
5393 5397 5398 5399 5402 5399 5397 5398 5400 5407 5412 5413 5409 5405 5401 5399 5398 5395 5392 5389 5386 5383 5381 5379 5377 5376 5374 5373 5372 5372 5372 5372 5372 5372 5372 5372 5372 5372 5373 5372 5372 5373 5374 5374
5391 5385 5385 5389 5395 5392 5389 5390 5390 5393 5399 5396 5392 5390 5386 5385 5384 5381 5378 5376 5373 5370 5368 5367 5364 5363 5362 5361 5360 5360 5360 5360 5360 5361 5361 5360 5361 5361 5360 5360 5360 5360 5361 5362
5372 5375 5374 5402 5395 5391 5386 5381 5380 5381 5381 5379 5377 5374 5372 5370 5368 5366 5364 5363 5360 5357 5356 5354 5353 5351 5350 5349 5348 5348 5348 5348 5348 5348 5348 5349 5348 5348 5347 5347 5347 5348 5349 5350
5364 5365 5381 5392 5381 5373 5370 5370 5371 5369 5368 5364 5360 5359 5360 5357 5354 5351 5350 5348 5346 5344 5343 5342 5341 5340 5338 5336 5335 5335 5336 5336 5335 5335 5336 5336 5335 5335 5334 5335 5335 5336 5337 5338
5358 5357 5367 5384 5366 5363 5362 5358 5363 5359 5355 5349 5345 5344 5348 5343 5341 5338 5337 5335 5333 5331 5330 5329 5328 5327 5325 5323 5322 5322 5323 5323 5322 5322 5322 5322 5322 5322 5322 5322 5323 5324 5325 5325
5346 5347 5362 5360 5350 5352 5353 5359 5349 5345 5341 5335 5332 5331 5329 5328 5327 5325 5323 5322 5320 5318 5316 5315 5315 5313 5312 5311 5310 5310 5310 5310 5309 5309 5309 5309 5309 5310 5309 5310 5310 5310 5311 5312
5340 5340 5353 5342 5337 5340 5343 5338 5335 5331 5328 5323 5318 5316 5315 5315 5314 5312 5310 5309 5307 5305 5303 5302 5301 5300 5299 5297 5297 5296 5296 5296 5296 5296 5296 5296 5296 5296 5296 5297 5297 5297 5297 5298
5344 5351 5347 5334 5332 5329 5326 5324 5322 5318 5314 5310 5306 5304 5304 5302 5301 5300 5298 5296 5294 5292 5290 5289 5288 5287 5285 5285 5284 5283 5282 5282 5282 5282 5282 5283 5283 5283 5283 5283 5283 5284 5284 5284
5334 5338 5333 5324 5321 5318 5315 5312 5309 5305 5301 5298 5295 5293 5291 5290 5289 5288 5286 5284 5282 5280 5278 5276 5275 5274 5273 5272 5271 5270 5269 5268 5269 5269 5269 5269 5270 5270 5270 5270 5270 5270 5270 5270
5319 5321 5319 5319 5314 5309 5304 5300 5296 5292 5289 5286 5284 5282 5280 5278 5277 5275 5275 5272 5269 5267 5265 5264 5262 5261 5260 5260 5258 5257 5256 5256 5256 5257 5257 5256 5257 5256 5257 5257 5257 5258 5257 5257
5322 5318 5312 5311 5306 5300 5294 5290 5286 5282 5279 5276 5274 5271 5269 5267 5265 5263 5261 5260 5257 5255 5253 5251 5250 5249 5248 5246 5245 5244 5244 5244 5243 5244 5244 5244 5244 5244 5244 5245 5246 5246 5246 5247
5308 5303 5298 5295 5293 5290 5285 5281 5277 5273 5269 5266 5263 5260 5258 5256 5254 5252 5249 5247 5244 5242 5240 5238 5236 5236 5235 5233 5232 5231 5230 5230 5230 5231 5232 5232 5231 5231 5231 5232 5233 5233 5234 5235
5294 5290 5286 5284 5281 5277 5273 5270 5266 5262 5259 5256 5252 5250 5247 5244 5241 5239 5237 5234 5232 5229 5227 5225 5223 5222 5222 5220 5219 5218 5217 5218 5219 5219 5219 5219 5219 5219 5218 5219 5219 5219 5221 5222
5284 5280 5276 5272 5269 5265 5262 5258 5254 5250 5247 5245 5242 5239 5237 5233 5230 5228 5225 5223 5220 5217 5215 5213 5211 5210 5208 5207 5207 5206 5205 5205 5206 5206 5207 5207 5207 5207 5206 5206 5206 5207 5207 5208
5271 5268 5264 5260 5258 5254 5250 5246 5242 5240 5237 5235 5231 5229 5226 5222 5219 5216 5214 5211 5207 5206 5204 5202 5200 5199 5197 5196 5194 5194 5193 5194 5195 5195 5195 5195 5194 5194 5194 5194 5194 5194 5195 5196
5258 5255 5252 5248 5246 5242 5238 5236 5233 5230 5227 5224 5221 5218 5214 5211 5208 5205 5203 5200 5197 5195 5194 5192 5191 5189 5187 5185 5183 5183 5182 5182 5183 5183 5183 5183 5183 5182 5182 5182 5182 5182 5183 5184
5250 5248 5244 5239 5235 5232 5229 5226 5222 5219 5216 5213 5210 5207 5204 5201 5198 5195 5193 5190 5188 5186 5185 5184 5182 5180 5178 5175 5174 5173 5172 5171 5171 5172 5172 5172 5171 5171 5171 5170 5170 5171 5172 5172
5238 5235 5232 5229 5225 5221 5218 5214 5211 5208 5205 5201 5198 5195 5193 5190 5188 5186 5183 5180 5178 5177 5177 5175 5174 5172 5169 5167 5166 5164 5163 5162 5162 5161 5161 5162 5161 5159 5159 5159 5159 5160 5161 5161
5225 5223 5219 5216 5213 5209 5206 5202 5199 5195 5192 5189 5186 5184 5181 5180 5177 5175 5172 5170 5169 5168 5167 5166 5164 5163 5160 5158 5158 5156 5154 5153 5152 5151 5151 5150 5150 5149 5149 5149 5149 5150 5150 5150
5212 5209 5206 5203 5199 5197 5194 5190 5186 5183 5180 5177 5174 5172 5170 5168 5166 5164 5162 5161 5160 5159 5158 5157 5155 5153 5151 5150 5149 5147 5145 5144 5142 5141 5140 5139 5139 5139 5139 5139 5139 5140 5140 5139
5200 5197 5193 5190 5187 5184 5181 5178 5175 5172 5169 5166 5164 5162 5160 5158 5157 5155 5153 5151 5151 5150 5148 5146 5145 5144 5143 5142 5139 5137 5135 5134 5132 5131 5130 5129 5129 5129 5129 5129 5129 5130 5130 5130
5188 5185 5182 5178 5175 5172 5169 5166 5163 5161 5158 5157 5155 5153 5151 5149 5147 5146 5144 5143 5141 5141 5139 5137 5136 5136 5135 5132 5129 5127 5125 5124 5122 5121 5121 5120 5120 5120 5120 5119 5120 5120 5120 5121
5176 5173 5170 5167 5164 5160 5157 5156 5154 5152 5149 5147 5146 5144 5142 5140 5138 5136 5135 5134 5132 5131 5129 5128 5128 5127 5125 5121 5118 5116 5115 5114 5113 5113 5112 5112 5111 5111 5111 5111 5111 5112 5112 5112
5165 5162 5159 5156 5153 5151 5148 5146 5144 5142 5140 5139 5137 5136 5133 5131 5129 5127 5125 5123 5122 5121 5119 5117 5117 5116 5112 5110 5108 5107 5105 5104 5104 5104 5103 5103 5102 5102 5102 5103 5103 5104 5105 5105
5155 5153 5150 5147 5145 5142 5140 5138 5136 5134 5132 5130 5128 5127 5124 5122 5120 5118 5116 5114 5113 5112 5109 5107 5105 5104 5102 5100 5099 5097 5096 5096 5095 5094 5094 5094 5094 5094 5095 5096 5096 5097 5098 5100
5146 5144 5142 5139 5137 5135 5132 5130 5127 5125 5123 5121 5119 5118 5116 5114 5112 5110 5107 5105 5104 5102 5100 5098 5096 5094 5093 5092 5090 5089 5088 5087 5087 5086 5086 5086 5086 5087 5088 5089 5090 5091 5093 5095